Location: Bishopstone
(51.0167°N, 1.9000°W)
Time: 02:37:17
(UTC+00:00)

Ariane Rocket - Pass Details

Date: 16 September 2019
Orbit: 761 x 769 km, 98.8° (Epoch: 15 October)

Event Time Altitude Azimuth Distance (km) Brightness Sun altitude
Rises 19:14:43 0° 174° (S) 3,213 6.0 -9.2°
Reaches altitude 10° 19:17:02 10° 178° (S) 2,293 5.3 -9.6°
Maximum altitude 19:22:01 60° 258° (WSW) 876 3.6 -10.3°
Drops below altitude 10° 19:27:04 10° 338° (NNW) 2,315 6.1 -11.1°
Sets 19:29:25 0° 343° (NNW) 3,247 6.8 -11.5°
